EW0433 Weather Reports


Display with metric or nautical units.
time (UTC)temp
F
wind
direction
speed
MPH
gust
MPH
rain 1hr
in
rain 24hr
in
rain mn
in
humidity
%
barometer
mb
20260507003323 60 251 14.0 22.0 0.00 0.00 0.00 75 1018.5
20260507002315 61 252 15.0 21.0 0.00 0.00 0.00 73 1018.5
20260507001323 62 248 14.0 21.0 0.00 0.00 0.00 73 1018.5
20260507000328 62 254 12.0 20.0 0.00 0.00 0.00 73 1018.6
20260506235338 62 254 15.0 24.0 0.00 0.00 0.00 72 1018.6
20260506234320 63 260 10.0 19.0 0.00 0.00 0.00 71 1018.5
20260506233328 64 255 9.0 20.0 0.00 0.00 0.00 72 1018.5
20260506232332 64 258 11.0 20.0 0.00 0.00 0.00 71 1018.5
20260506231316 65 245 11.0 21.0 0.00 0.00 0.00 69 1018.5
20260506230323 65 266 13.0 20.0 0.00 0.00 0.00 71 1018.6
20260506225332 66 273 12.0 17.0 0.00 0.00 0.00 70 1018.6
20260506224323 67 247 12.0 20.0 0.00 0.00 0.00 69 1018.8
20260506223329 66 237 12.0 17.0 0.00 0.00 0.00 70 1018.8
20260506222334 66 251 11.0 20.0 0.00 0.00 0.00 71 1018.9
20260506221321 67 252 12.0 18.0 0.00 0.00 0.00 69 1019.0
20260506220326 68 306 8.0 15.0 0.00 0.00 0.00 70 1019.2
20260506215318 67 283 12.0 19.0 0.00 0.00 0.00 69 1019.2
20260506214324 69 260 12.0 16.0 0.00 0.00 0.00 68 1019.3
20260506213330 69 267 9.0 17.0 0.00 0.00 0.00 68 1019.3
20260506212338 70 271 8.0 17.0 0.00 0.00 0.00 68 1019.3
20260506211319 70 240 8.0 14.0 0.00 0.00 0.00 66 1019.3
20260506210317 70 258 9.0 14.0 0.00 0.00 0.00 66 1019.3
20260506205335 70 262 7.0 13.0 0.00 0.00 0.00 67 1019.4
20260506204321 69 256 8.0 11.0 0.00 0.00 0.00 66 1019.4
20260506203345 69 255 7.0 12.0 0.00 0.00 0.00 67 1019.5
20260506202333 68 264 6.0 12.0 0.00 0.00 0.00 68 1019.7
20260506201343 70 264 5.0 10.0 0.00 0.00 0.00 65 1019.8
20260506200329 71 273 0.0 6.0 0.00 0.00 0.00 62 1019.8
20260506195334 69 154 3.0 7.0 0.00 0.00 0.00 62 1019.9
20260506194343 69 81 2.0 4.0 0.00 0.00 0.00 64 1020.0
20260506193320 68 318 2.0 5.0 0.00 0.00 0.00 64 1020.2
20260506192330 69 350 2.0 5.0 0.00 0.00 0.00 63 1020.2
20260506191321 69 96 1.0 6.0 0.00 0.00 0.00 63 1020.3
20260506190328 70 97 4.0 7.0 0.00 0.00 0.00 62 1020.4
20260506185334 69 83 1.0 4.0 0.00 0.00 0.00 65 1020.3
20260506184334 68 260 2.0 8.0 0.00 0.00 0.00 65 1020.5
20260506183315 67 358 2.0 6.0 0.00 0.00 0.00 65 1020.6
20260506182326 67 209 3.0 7.0 0.00 0.00 0.00 65 1020.6
20260506181401 67 145 1.0 5.0 0.00 0.00 0.00 68 1020.6
20260506180321 64 155 1.0 4.0 0.00 0.00 0.00 70 1020.5
20260506175332 65 257 3.0 7.0 0.00 0.00 0.00 68 1020.5
20260506174345 65 221 1.0 5.0 0.00 0.00 0.00 69 1020.5
20260506173322 64 249 4.0 8.0 0.00 0.00 0.00 68 1020.6
20260506172335 64 230 2.0 6.0 0.00 0.00 0.00 69 1020.6
20260506171333 63 235 3.0 7.0 0.00 0.00 0.00 69 1020.5
20260506170342 62 248 4.0 7.0 0.00 0.00 0.00 70 1020.7
20260506165329 62 255 4.0 8.0 0.00 0.00 0.00 71 1020.7
20260506164333 61 257 4.0 8.0 0.00 0.00 0.00 71 1020.7
20260506163336 60 221 4.0 7.0 0.00 0.00 0.00 71 1020.7
20260506162333 60 251 5.0 9.0 0.00 0.00 0.00 71 1020.7
20260506161333 59 220 4.0 8.0 0.00 0.00 0.00 72 1020.7
20260506160315 58 254 3.0 9.0 0.00 0.00 0.00 71 1020.7
20260506155323 58 249 4.0 8.0 0.00 0.00 0.00 71 1020.8
20260506154348 57 252 3.0 8.0 0.00 0.00 0.00 71 1020.7
20260506153314 57 258 5.0 9.0 0.00 0.00 0.00 71 1020.6
20260506152323 57 259 6.0 10.0 0.00 0.00 0.00 71 1020.7
20260506151326 56 258 4.0 11.0 0.00 0.00 0.00 71 1020.6
20260506150354 56 273 3.0 8.0 0.00 0.00 0.00 71 1020.6
20260506145340 55 261 5.0 9.0 0.00 0.00 0.00 71 1020.6
20260506144325 55 244 5.0 8.0 0.00 0.00 0.00 72 1020.6
20260506142333 54 267 4.0 8.0 0.00 0.00 0.00 73 1020.4
20260506141405 54 254 3.0 9.0 0.00 0.00 0.00 74 1020.3
20260506140318 54 291 1.0 8.0 0.00 0.00 0.00 74 1020.3
20260506135323 54 266 2.0 5.0 0.00 0.00 0.00 74 1020.2
20260506134338 54 293 3.0 8.0 0.00 0.00 0.00 74 1020.1
20260506133316 54 274 3.0 8.0 0.00 0.00 0.00 74 1020.1
20260506132317 54 273 3.0 8.0 0.00 0.00 0.00 74 1020.1
20260506131330 54 301 3.0 5.0 0.00 0.00 0.00 74 1020.1
20260506130358 54 273 1.0 6.0 0.00 0.00 0.00 74 1020.0
20260506125326 54 319 1.0 5.0 0.00 0.00 0.00 75 1019.9
20260506124328 54 264 2.0 6.0 0.00 0.00 0.00 75 1019.9
20260506123327 54 266 2.0 5.0 0.00 0.00 0.00 75 1019.8
20260506122329 54 273 1.0 6.0 0.00 0.00 0.00 75 1019.8
20260506121350 54 302 0.0 3.0 0.00 0.00 0.00 75 1019.7
20260506120316 54 283 0.0 2.0 0.00 0.00 0.00 75 1019.7
20260506115325 54 277 1.0 3.0 0.00 0.00 0.00 75 1019.6
20260506114333 54 267 2.0 5.0 0.00 0.00 0.00 75 1019.5
20260506113336 54 306 2.0 7.0 0.00 0.00 0.00 75 1019.5
20260506112345 54 299 1.0 4.0 0.00 0.00 0.00 75 1019.5
20260506111331 54 294 1.0 5.0 0.00 0.00 0.00 75 1019.4
20260506110316 54 257 3.0 8.0 0.00 0.00 0.00 75 1019.3
20260506105327 54 283 1.0 6.0 0.00 0.00 0.00 75 1019.3
20260506104340 54 273 5.0 9.0 0.00 0.00 0.00 75 1019.2
20260506103315 54 256 4.0 8.0 0.00 0.00 0.00 75 1019.1
20260506102326 54 248 3.0 9.0 0.00 0.00 0.00 75 1019.1
20260506101340 54 248 3.0 9.0 0.00 0.00 0.00 75 1019.1
20260506100317 54 248 3.0 8.0 0.00 0.00 0.00 75 1019.0
20260506095324 54 242 2.0 7.0 0.00 0.00 0.00 75 1019.1
20260506094340 54 263 2.0 5.0 0.00 0.01 0.00 75 1019.1
20260506093316 54 295 2.0 6.0 0.00 0.01 0.00 75 1019.1
20260506092322 54 295 1.0 6.0 0.00 0.01 0.00 75 1019.1
20260506091346 54 298 2.0 8.0 0.00 0.01 0.00 75 1019.2
20260506090329 54 288 2.0 8.0 0.00 0.01 0.00 75 1019.1
20260506085355 54 310 2.0 8.0 0.00 0.01 0.00 75 1019.2
20260506084339 54 289 3.0 7.0 0.00 0.04 0.00 75 1019.1
20260506083320 54 310 2.0 5.0 0.00 0.04 0.00 75 1019.2
20260506082354 54 323 3.0 8.0 0.00 0.04 0.00 75 1019.1
20260506081313 54 286 1.0 5.0 0.00 0.04 0.00 75 1019.2
20260506080343 54 318 1.0 5.0 0.00 0.04 0.00 75 1019.2
20260506073327 54 244 3.0 6.0 0.00 0.08 0.00 75 1018.8
20260506072327 54 266 3.0 6.0 0.00 0.08 0.00 75 1018.7
20260506071333 54 276 1.0 6.0 0.00 0.08 0.00 75 1018.7
20260506070316 54 268 4.0 8.0 0.00 0.08 0.00 75 1018.6
20260506062330 54 262 1.0 7.0 0.00 0.14 0.08 76 1018.5
20260506061335 54 277 5.0 10.0 0.00 0.14 0.08 76 1018.4
20260506060338 54 298 3.0 10.0 0.00 0.14 0.08 76 1018.3
20260506051331 54 256 5.0 10.0 0.00 0.17 0.08 78 1018.1
20260506050317 54 260 5.0 10.0 0.00 0.17 0.08 77 1018.0
20260506044357 54 266 2.0 9.0 0.00 0.28 0.08 78 1017.8
20260506043335 54 316 3.0 8.0 0.00 0.28 0.08 78 1017.7
20260506042332 54 264 2.0 7.0 0.00 0.28 0.08 78 1017.6
20260506041332 55 267 4.0 8.0 0.00 0.28 0.08 79 1017.5
20260506040317 55 264 3.0 7.0 0.00 0.28 0.08 79 1017.3
20260506035323 55 271 1.0 7.0 0.00 0.28 0.08 79 1017.2
20260506034327 55 345 4.0 9.0 0.00 0.31 0.08 78 1017.1
20260506033328 55 345 4.0 9.0 0.00 0.31 0.08 77 1016.8
20260506032316 55 345 6.0 12.0 0.00 0.31 0.08 77 1016.7
20260506031326 56 345 5.0 10.0 0.00 0.31 0.08 77 1016.6
20260506030325 56 345 4.0 10.0 0.00 0.31 0.08 76 1016.5
20260506025326 56 345 5.0 10.0 0.00 0.31 0.08 76 1016.4
20260506024329 56 345 5.0 12.0 0.00 0.36 0.08 76 1016.3
20260506023329 56 259 6.0 14.0 0.00 0.36 0.08 76 1016.2
20260506022318 57 296 9.0 16.0 0.00 0.36 0.08 75 1016.1
20260506021326 57 276 10.0 15.0 0.00 0.36 0.08 74 1015.9
20260506020327 57 264 8.0 15.0 0.00 0.36 0.08 73 1015.9
20260506015340 57 252 8.0 17.0 0.00 0.36 0.08 74 1015.9
20260506014318 57 286 9.0 17.0 0.00 0.38 0.08 73 1015.7
20260506013321 57 248 8.0 16.0 0.00 0.38 0.08 74 1015.8
20260506012356 58 254 9.0 15.0 0.00 0.38 0.08 73 1015.8
20260506011324 58 271 11.0 18.0 0.00 0.38 0.08 74 1015.9
20260506010318 58 274 9.0 18.0 0.00 0.38 0.08 73 1015.8
20260506005338 59 258 11.0 16.0 0.00 0.38 0.08 73 1015.7
20260506004326 59 263 10.0 17.0 0.00 0.42 0.08 73 1015.6